Pampa, TX

8:34 AM CST on February 24, 2018 (GMT -0600)
Perry Lefors

Weather History for KPPA - October, 2011

Change the Weather History Date:

Tuesday, October 4, 2011

  Actual Average Record
Temperature  
Mean Temperature 66 °F -  
Max Temperature 82 °F 79 °F 94 °F (1967)
Min Temperature 50 °F 50 °F 41 °F (1968)
Cooling Degree Days 1    
Growing Degree Days 16 (Base 50)    
Moisture  
Dew Point 34 °F    
Average Humidity 32    
Maximum Humidity 58    
Minimum Humidity 15    
Precipitation  
Precipitation 0.00 in - - ()
Sea Level Pressure  
Sea Level Pressure 30.16 in    
Wind  
Wind Speed 14 mph (South)    
Max Wind Speed 24 mph    
Max Gust Speed 33 mph    
Visibility 10 miles    
Events      
Averages and records for this station are not official NWS values.
T = Trace of Precipitation, MM = Missing Value Source: NWS Daily Summary

Daily Weather History Graph

Daily Weather History Graph

Search for Another Location

Airport or City:

Trip Planner

Search our weather history database for the weather conditions in past years. The results will help you decide how hot, cold, wet, or windy it might be!

Date:

Astronomy

Oct. 04, 2011 Rise Set
Actual Time 7:41 AM CDT 7:23 PM CDT
Civil Twilight 7:15 AM CDT 7:49 PM CDT
Nautical Twilight 6:46 AM CDT 8:18 PM CDT
Astronomical Twilight 6:16 AM CDT 8:48 PM CDT
Moon 3:14 PM CDT (10/4) 12:40 AM CDT (10/4)
Length of Visible Light 12h 33m
Length of Day
11h 42m
First Quarter, 56% of the Moon is Illuminated
Oct 4
First Quarter
Oct 11
Full
Oct 19
Last Quarter
Oct 26
New
Nov 2
First Quarter

Hourly Weather History & Observations

Time (CDT) Temp. Dew Point Humidity Pressure Visibility Wind Dir Wind Speed Gust Speed Precip Events Conditions
12:15 AM 66.2 °F 37.4 °F 35% 30.20 in 10.0 mi South 15.0 mph - N/A   Clear
12:35 AM 64.4 °F 37.4 °F 37% 30.20 in 10.0 mi South 15.0 mph - N/A   Clear
12:55 AM 64.4 °F 37.4 °F 37% 30.20 in 10.0 mi South 15.0 mph - N/A   Clear
1:15 AM 64.4 °F 37.4 °F 37% 30.19 in 10.0 mi South 15.0 mph - N/A   Clear
1:35 AM 62.6 °F 37.4 °F 39% 30.19 in 10.0 mi South 13.8 mph - N/A   Clear
1:55 AM 62.6 °F 37.4 °F 39% 30.19 in 10.0 mi South 13.8 mph - N/A   Clear
2:35 AM 60.8 °F 37.4 °F 42% 30.19 in 10.0 mi South 11.5 mph - N/A   Clear
3:15 AM 59.0 °F 37.4 °F 45% 30.19 in 10.0 mi South 10.4 mph - N/A   Clear
3:35 AM 57.2 °F 37.4 °F 48% 30.19 in 10.0 mi South 11.5 mph - N/A   Clear
3:55 AM 55.4 °F 35.6 °F 47% 30.18 in 10.0 mi South 11.5 mph - N/A   Clear
4:15 AM 53.6 °F 35.6 °F 51% 30.18 in 10.0 mi South 11.5 mph - N/A   Clear
4:35 AM 53.6 °F 35.6 °F 51% 30.18 in 10.0 mi South 11.5 mph - N/A   Clear
4:55 AM 53.6 °F 35.6 °F 51% 30.18 in 10.0 mi SSW 11.5 mph - N/A   Clear
5:15 AM 53.6 °F 35.6 °F 51% 30.18 in 10.0 mi SSW 11.5 mph - N/A   Clear
5:35 AM 53.6 °F 35.6 °F 51% 30.18 in 10.0 mi SSW 11.5 mph - N/A   Clear
5:55 AM 51.8 °F 35.6 °F 54% 30.18 in 10.0 mi SSW 11.5 mph - N/A   Clear
6:15 AM 51.8 °F 35.6 °F 54% 30.18 in 10.0 mi SSW 11.5 mph - N/A   Clear
6:35 AM 51.8 °F 35.6 °F 54% 30.19 in 10.0 mi SSW 10.4 mph - N/A   Clear
7:15 AM 50.0 °F 35.6 °F 58% 30.20 in 10.0 mi SSW 9.2 mph - N/A   Clear
7:35 AM 50.0 °F 35.6 °F 58% 30.21 in 10.0 mi SSW 9.2 mph - N/A   Clear
7:55 AM 51.8 °F 35.6 °F 54% 30.21 in 10.0 mi SSW 8.1 mph - N/A   Clear
8:15 AM 53.6 °F 37.4 °F 54% 30.21 in 10.0 mi SW 8.1 mph - N/A   Clear
8:35 AM 60.8 °F 37.4 °F 42% 30.21 in 10.0 mi SW 10.4 mph - N/A   Clear
9:15 AM 64.4 °F 39.2 °F 40% 30.22 in 10.0 mi SW 12.7 mph - N/A   Clear
9:35 AM 68.0 °F 41.0 °F 37% 30.23 in 10.0 mi SW 12.7 mph - N/A   Clear
10:15 AM 71.6 °F 39.2 °F 31% 30.23 in 10.0 mi WSW 13.8 mph 17.3 mph N/A   Clear
10:35 AM 73.4 °F 39.2 °F 29% 30.23 in 10.0 mi SW 13.8 mph - N/A   Clear
10:55 AM 75.2 °F 39.2 °F 27% 30.23 in 10.0 mi WSW 12.7 mph - N/A   Clear
11:35 AM 77.0 °F 39.2 °F 26% 30.22 in 10.0 mi SW 13.8 mph 20.7 mph N/A   Clear
11:55 AM 77.0 °F 37.4 °F 24% 30.22 in 10.0 mi South 15.0 mph - N/A   Clear
12:15 PM 78.8 °F 37.4 °F 23% 30.21 in 10.0 mi South 15.0 mph 25.3 mph N/A   Clear
12:35 PM 78.8 °F 35.6 °F 21% 30.21 in 10.0 mi South 10.4 mph 24.2 mph N/A   Clear
1:15 PM 80.6 °F 32.0 °F 17% 30.19 in 10.0 mi South 16.1 mph 26.5 mph N/A   Clear
1:35 PM 80.6 °F 33.8 °F 18% 30.18 in 10.0 mi South 24.2 mph 28.8 mph N/A   Clear
2:15 PM 80.6 °F 32.0 °F 17% 30.16 in 10.0 mi South 21.9 mph 33.4 mph N/A   Clear
2:55 PM 80.6 °F 32.0 °F 17% 30.13 in 10.0 mi SSE 18.4 mph 31.1 mph N/A   Clear
3:15 PM 82.4 °F 32.0 °F 16% 30.13 in 10.0 mi South 17.3 mph 32.2 mph N/A   Clear
3:35 PM 82.4 °F 32.0 °F 16% 30.12 in 10.0 mi SSE 23.0 mph 26.5 mph N/A   Clear
4:15 PM 82.4 °F 32.0 °F 16% 30.11 in 10.0 mi South 20.7 mph 29.9 mph N/A   Clear
4:35 PM 82.4 °F 30.2 °F 15% 30.10 in 10.0 mi South 19.6 mph 28.8 mph N/A   Clear
4:55 PM 80.6 °F 30.2 °F 16% 30.10 in 10.0 mi South 20.7 mph 28.8 mph N/A   Clear
5:15 PM 80.6 °F 30.2 °F 16% 30.09 in 10.0 mi South 20.7 mph 26.5 mph N/A   Clear
5:35 PM 80.6 °F 30.2 °F 16% 30.09 in 10.0 mi South 20.7 mph 26.5 mph N/A   Clear
5:55 PM 78.8 °F 30.2 °F 17% 30.09 in 10.0 mi South 19.6 mph 25.3 mph N/A   Clear
6:15 PM 78.8 °F 32.0 °F 18% 30.09 in 10.0 mi South 19.6 mph 25.3 mph N/A   Clear
6:35 PM 77.0 °F 30.2 °F 18% 30.09 in 10.0 mi SSE 19.6 mph 26.5 mph N/A   Clear
6:55 PM 75.2 °F 30.2 °F 19% 30.09 in 10.0 mi SSE 19.6 mph - N/A   Clear
7:15 PM 73.4 °F 30.2 °F 20% 30.09 in 10.0 mi SSE 16.1 mph 19.6 mph N/A   Clear
7:35 PM 71.6 °F 32.0 °F 23% 30.10 in 10.0 mi SSE 12.7 mph - N/A   Clear
7:55 PM 71.6 °F 32.0 °F 23% 30.10 in 10.0 mi SSE 12.7 mph 19.6 mph N/A   Clear
8:15 PM 69.8 °F 32.0 °F 25% 30.10 in 10.0 mi SSE 13.8 mph - N/A   Clear
8:35 PM 69.8 °F 32.0 °F 25% 30.11 in 10.0 mi SSE 15.0 mph - N/A   Clear
8:55 PM 68.0 °F 32.0 °F 26% 30.11 in 10.0 mi SSE 15.0 mph - N/A   Clear
9:35 PM 68.0 °F 32.0 °F 26% 30.11 in 10.0 mi SSE 16.1 mph 21.9 mph N/A   Clear
9:55 PM 66.2 °F 32.0 °F 28% 30.11 in 10.0 mi SSE 16.1 mph 20.7 mph N/A   Clear
10:15 PM 66.2 °F 32.0 °F 28% 30.11 in 10.0 mi SSE 16.1 mph - N/A   Clear
10:35 PM 64.4 °F 32.0 °F 30% 30.11 in 10.0 mi SSE 15.0 mph - N/A   Clear
10:55 PM 64.4 °F 32.0 °F 30% 30.12 in 10.0 mi SSE 13.8 mph - N/A   Clear
11:15 PM 62.6 °F 32.0 °F 32% 30.12 in 10.0 mi SSE 15.0 mph - N/A   Clear
11:35 PM 62.6 °F 32.0 °F 32% 30.12 in 10.0 mi SSE 17.3 mph - N/A   Clear
11:55 PM 62.6 °F 32.0 °F 32% 30.11 in 10.0 mi SSE 16.1 mph - N/A   Clear